Weather History for Le Mars, IA

Change the Weather History Date:

Saturday, June 15, 2013

  Actual Average Record
Temperature  
Mean Temperature 71 °F -  
Max Temperature 80 °F 82 °F 99 °F (1979)
Min Temperature 62 °F 57 °F 41 °F (1989)
Cooling Degree Days 6    
Growing Degree Days 21 (Base 50)    
Moisture  
Dew Point 62 °F    
Average Humidity 76    
Maximum Humidity 94    
Minimum Humidity 54    
Precipitation  
Precipitation 0.26 in - - ()
Sea Level Pressure  
Sea Level Pressure 29.90 in    
Wind  
Wind Speed 5 mph (NE)    
Max Wind Speed 30 mph    
Max Gust Speed 50 mph    
Visibility 10 miles    
Events Rain    
Averages and records for this station are not official NWS values.
T = Trace of Precipitation, MM = Missing Value Source: NWS Daily Summary

Daily Weather History Graph

Daily Weather History Graph

Search for Another Location

Airport:

Trip Planner

Search our weather history database for the weather conditions in past years. The results will help you decide how hot, cold, wet, or windy it might be!

Date:

Astronomy

Jun. 15, 2013 Rise Set
Actual Time 5:45 AM CDT 9:05 PM CDT
Civil Twilight 5:10 AM CDT 9:40 PM CDT
Nautical Twilight 4:25 AM CDT 10:25 PM CDT
Astronomical Twilight 3:29 AM CDT 11:21 PM CDT
Moon 12:30 PM CDT (6/15) 12:33 AM CDT (6/15)
Length of Visible Light 16h 29m
Length of Day
15h 19m
Waxing Crescent, 40% of the Moon is Illuminated
Jun 15
Waxing Crescent
Jun 16
First Quarter
Jun 23
Full
Jun 29
Last Quarter
Jul 8
New

Hourly Weather History & Observations

Time (CDT) Temp. Heat Index Dew Point Humidity Pressure Visibility Wind Dir Wind Speed Gust Speed Precip Events Conditions
12:15 AM 71.6 °F - 62.6 °F 73% 29.86 in 10.0 mi ESE 9.2 mph - N/A   Clear
12:35 AM 69.8 °F - 62.6 °F 78% 29.86 in 10.0 mi ENE 4.6 mph - N/A   Clear
12:55 AM 69.8 °F - 62.6 °F 78% 29.87 in 10.0 mi ESE 10.4 mph - N/A   Clear
1:15 AM 68.0 °F - 62.6 °F 83% 29.88 in 10.0 mi ESE 6.9 mph - N/A   Clear
1:35 AM 68.0 °F - 62.6 °F 83% 29.88 in 10.0 mi SE 9.2 mph - N/A   Clear
1:55 AM 68.0 °F - 62.6 °F 83% 29.90 in 10.0 mi South 10.4 mph - N/A   Mostly Cloudy
2:15 AM 68.0 °F - 60.8 °F 78% 29.90 in 10.0 mi South 9.2 mph - N/A   Mostly Cloudy
2:35 AM 68.0 °F - 60.8 °F 78% 29.90 in 10.0 mi South 5.8 mph - N/A   Overcast
2:55 AM 68.0 °F - 60.8 °F 78% 29.90 in 10.0 mi South 3.5 mph - N/A   Mostly Cloudy
3:15 AM 66.2 °F - 60.8 °F 83% 29.89 in 10.0 mi South 3.5 mph - N/A   Clear
3:35 AM 66.2 °F - 60.8 °F 83% 29.89 in 10.0 mi Calm Calm - N/A   Clear
3:55 AM 64.4 °F - 60.8 °F 88% 29.88 in 10.0 mi Calm Calm - N/A   Scattered Clouds
4:15 AM 66.2 °F - 60.8 °F 83% 29.87 in 10.0 mi ESE 3.5 mph - N/A   Scattered Clouds
4:35 AM 66.2 °F - 60.8 °F 83% 29.86 in 10.0 mi ENE 3.5 mph - N/A   Clear
4:55 AM 64.4 °F - 60.8 °F 88% 29.87 in 10.0 mi Calm Calm - N/A   Clear
5:15 AM 64.4 °F - 60.8 °F 88% 29.86 in 10.0 mi ENE 3.5 mph - N/A   Clear
5:35 AM 64.4 °F - 60.8 °F 88% 29.86 in 10.0 mi Calm Calm - N/A   Clear
5:55 AM 64.4 °F - 60.8 °F 88% 29.85 in 10.0 mi East 4.6 mph - N/A   Clear
6:15 AM 64.4 °F - 60.8 °F 88% 29.87 in 10.0 mi Calm Calm - N/A   Clear
6:35 AM 64.4 °F - 60.8 °F 88% 29.87 in 10.0 mi Calm Calm - N/A   Clear
6:55 AM 64.4 °F - 60.8 °F 88% 29.86 in 10.0 mi East 4.6 mph - N/A   Clear
7:15 AM 66.2 °F - 60.8 °F 83% 29.86 in 10.0 mi East 4.6 mph - N/A   Clear
7:35 AM 66.2 °F - 60.8 °F 83% 29.87 in 10.0 mi Calm Calm - N/A   Clear
7:55 AM 68.0 °F - 62.6 °F 83% 29.88 in 10.0 mi Calm Calm - N/A   Clear
8:15 AM 66.2 °F - 62.6 °F 88% 29.87 in 10.0 mi Calm Calm - N/A   Clear
8:35 AM 66.2 °F - 62.6 °F 88% 29.89 in 10.0 mi North 3.5 mph - N/A   Clear
8:55 AM 66.2 °F - 62.6 °F 88% 29.91 in 10.0 mi North 6.9 mph - N/A   Mostly Cloudy
9:15 AM 66.2 °F - 62.6 °F 88% 29.93 in 10.0 mi North 4.6 mph - N/A   Overcast
9:35 AM 66.2 °F - 62.6 °F 88% 29.94 in 10.0 mi NW 4.6 mph - 0.01 in Rain Rain
9:55 AM 66.2 °F - 62.6 °F 88% 29.99 in 3.0 mi WNW 29.9 mph 49.5 mph 0.05 in Rain Rain
10:15 AM 62.6 °F - 60.8 °F 94% 29.99 in 10.0 mi NE 9.2 mph - 0.21 in Rain Heavy Rain
10:35 AM 62.6 °F - 59.0 °F 88% 29.94 in 10.0 mi East 4.6 mph - 0.21 in Rain Light Rain
10:55 AM 62.6 °F - 59.0 °F 88% 29.91 in 10.0 mi NE 4.6 mph - 0.21 in Rain Light Rain
11:15 AM 64.4 °F - 60.8 °F 88% 29.88 in 10.0 mi NNE 8.1 mph - N/A   Scattered Clouds
11:35 AM 66.2 °F - 62.6 °F 88% 29.86 in 10.0 mi NE 6.9 mph - N/A   Clear
11:55 AM 69.8 °F - 64.4 °F 83% 29.87 in 10.0 mi NNE 10.4 mph - N/A   Clear
12:15 PM 71.6 °F - 64.4 °F 78% 29.89 in 10.0 mi ENE 10.4 mph - N/A   Scattered Clouds
12:35 PM 71.6 °F - 64.4 °F 78% 29.90 in 10.0 mi NE 11.5 mph - N/A   Mostly Cloudy
12:55 PM 73.4 °F - 64.4 °F 73% 29.91 in 10.0 mi NNE 8.1 mph - N/A   Mostly Cloudy
1:15 PM 73.4 °F - 64.4 °F 73% 29.91 in 10.0 mi NE 9.2 mph - N/A   Mostly Cloudy
1:35 PM 75.2 °F - 64.4 °F 69% 29.91 in 10.0 mi NE 11.5 mph - N/A   Scattered Clouds
1:55 PM 75.2 °F - 64.4 °F 69% 29.91 in 10.0 mi NNE 8.1 mph - N/A   Scattered Clouds
2:15 PM 75.2 °F - 64.4 °F 69% 29.92 in 10.0 mi NE 5.8 mph - N/A   Mostly Cloudy
2:35 PM 77.0 °F - 66.2 °F 69% 29.92 in 10.0 mi NE 6.9 mph - N/A   Mostly Cloudy
2:55 PM 75.2 °F - 64.4 °F 69% 29.94 in 10.0 mi SSE 3.5 mph - N/A   Scattered Clouds
3:15 PM 78.8 °F - 64.4 °F 61% 29.94 in 10.0 mi SSE 4.6 mph - N/A   Scattered Clouds
3:35 PM 78.8 °F - 64.4 °F 61% 29.93 in 10.0 mi South 3.5 mph - N/A   Scattered Clouds
3:55 PM 78.8 °F - 64.4 °F 61% 29.92 in 10.0 mi Calm Calm - N/A   Scattered Clouds
4:15 PM 78.8 °F - 64.4 °F 61% 29.91 in 10.0 mi West 3.5 mph - N/A   Scattered Clouds
4:35 PM 80.6 °F 82.3 °F 64.4 °F 58% 29.90 in 10.0 mi WSW 4.6 mph - N/A   Scattered Clouds
4:55 PM 80.6 °F 82.3 °F 64.4 °F 58% 29.89 in 10.0 mi NW 5.8 mph - N/A   Scattered Clouds
5:15 PM 80.6 °F 82.3 °F 64.4 °F 58% 29.89 in 10.0 mi NW 4.6 mph - N/A   Scattered Clouds
5:35 PM 80.6 °F 81.8 °F 62.6 °F 54% 29.89 in 10.0 mi NNW 4.6 mph - N/A   Clear
5:55 PM 80.6 °F 81.8 °F 62.6 °F 54% 29.88 in 10.0 mi WNW 3.5 mph - N/A   Clear
6:15 PM 78.8 °F - 60.8 °F 54% 29.88 in 10.0 mi Calm Calm - N/A   Scattered Clouds
6:35 PM 80.6 °F 81.8 °F 62.6 °F 54% 29.88 in 10.0 mi North 6.9 mph - N/A   Mostly Cloudy
6:55 PM 80.6 °F 81.8 °F 62.6 °F 54% 29.88 in 10.0 mi NE 9.2 mph - N/A   Overcast
7:15 PM 78.8 °F - 64.4 °F 61% 29.88 in 10.0 mi North 5.8 mph - N/A   Scattered Clouds
7:35 PM 78.8 °F - 62.6 °F 57% 29.89 in 10.0 mi North 9.2 mph - N/A   Clear
7:55 PM 78.8 °F - 62.6 °F 57% 29.89 in 10.0 mi North 4.6 mph - N/A   Clear
8:15 PM 77.0 °F - 60.8 °F 57% 29.90 in 10.0 mi Calm Calm - N/A   Clear
8:35 PM 75.2 °F - 62.6 °F 65% 29.89 in 10.0 mi Calm Calm - N/A   Clear
8:55 PM 73.4 °F - 62.6 °F 69% 29.90 in 10.0 mi Calm Calm - N/A   Clear
9:15 PM 71.6 °F - 62.6 °F 73% 29.91 in 10.0 mi Calm Calm - N/A   Clear
9:35 PM 71.6 °F - 62.6 °F 73% 29.92 in 10.0 mi Calm Calm - N/A   Clear
9:55 PM 71.6 °F - 62.6 °F 73% 29.93 in 10.0 mi Calm Calm - N/A   Clear
10:15 PM 69.8 °F - 62.6 °F 78% 29.94 in 10.0 mi Calm Calm - N/A   Clear
10:35 PM 69.8 °F - 62.6 °F 78% 29.95 in 10.0 mi Calm Calm - N/A   Clear
10:55 PM 66.2 °F - 62.6 °F 88% 29.95 in 10.0 mi Calm Calm - N/A   Clear
11:15 PM 66.2 °F - 62.6 °F 88% 29.95 in 10.0 mi Calm Calm - N/A   Clear
11:35 PM 66.2 °F - 62.6 °F 88% 29.95 in 10.0 mi Calm Calm - N/A   Clear
11:55 PM 66.2 °F - 62.6 °F 88% 29.95 in 10.0 mi Calm Calm - N/A   Clear